Tracking 30922 objects as of 1-Jul-2025
HD Live streaming from Space Station
objects crossing your sky now

THORAD AGENA D DEB

Track THORAD AGENA D DEB now!
10-day predictions


NORAD ID: 5347
Int'l Code: 1970-025KL
Perigee: 914.7 km
Apogee: 982.1 km
Inclination: 99.9 °
Period: 103.9 minutes
Semi major axis: 7319 km
RCS: 0.0272 m2 (small)
Launch date: April 8, 1970
Source: United States (US)
Launch site: AIR FORCE WESTERN TEST RANGE (AFWTR)

Note: This is SATELLITE DEBRIS
Your satellite tracking list
Your tracking list is empty




NASA's NSSDC Master Catalog

Two Line Element Set (TLE):
1  5347U 70025KL  25182.20135750  .00000600  00000-0  55588-3 0  9994
2  5347  99.9295  71.4246 0046064  34.2350 123.0167 13.86411140708605
Source of the keplerian elements: AFSPC